Theta_e
327 329 329 328 327 330 333 329 326 328 331 330 323 322 324 321 323 332 338 340 342 344 345 346 346 346 346 348 349 350 352 353 352 353 354 355 356 356 356 356 354 353 352 351 350 348 348 348 347 346 347 347 348 348 347 349 348 340 330 326 326 328 332
325 326 327 328 327 331 330 325 325 328 330 331 325 323 324 321 325 335 339 338 339 342 344 345 346 347 347 347 348 348 348 350 350 351 352 353 355 355 356 357 356 354 352 351 351 350 349 349 349 347 348 350 350 350 348 349 350 346 337 329 327 327 328
324 324 324 325 327 329 327 323 326 327 324 326 326 323 323 324 331 339 341 340 341 341 342 343 343 345 346 344 344 345 345 347 349 349 349 351 354 354 356 357 357 356 354 353 351 351 351 350 350 349 348 350 352 352 351 350 350 350 346 338 333 332 330
324 324 324 322 324 327 326 323 324 326 324 324 325 324 323 327 337 344 342 340 344 345 345 346 344 343 343 343 342 342 343 345 346 346 347 349 350 352 354 355 355 355 354 353 351 351 351 350 351 350 349 350 351 353 354 353 352 352 352 348 342 338 334
321 321 322 322 322 324 323 322 321 322 324 323 324 324 320 326 340 345 342 341 344 345 346 346 346 343 341 342 342 341 342 343 343 344 344 346 348 350 352 353 353 353 352 352 352 352 351 350 351 351 351 351 350 351 354 355 354 354 354 354 350 346 340
318 320 323 323 323 324 321 322 321 321 324 321 320 324 322 325 336 339 340 342 342 343 344 344 345 343 341 341 341 341 342 342 342 342 342 344 347 348 350 351 352 352 353 352 352 352 352 352 353 352 352 353 351 351 353 354 355 356 356 356 355 354 351
320 321 323 321 322 324 322 323 323 323 325 322 319 323 328 333 336 335 337 341 343 344 345 343 342 341 340 341 341 341 341 341 340 341 342 343 344 345 346 346 348 351 352 353 354 354 354 355 355 354 354 354 353 352 352 353 357 358 358 358 357 357 357
325 323 323 324 323 322 323 323 323 323 323 323 323 325 332 338 338 338 340 342 345 346 343 340 339 339 340 340 340 340 340 340 339 339 340 342 342 342 343 343 346 348 350 352 354 355 355 355 356 355 353 354 354 353 352 353 356 356 357 357 357 356 357
323 323 323 327 326 322 322 323 323 324 323 324 327 327 332 339 337 337 341 343 343 343 340 338 338 339 339 339 339 339 339 339 338 338 338 340 340 340 341 341 343 345 346 348 350 353 354 354 355 355 354 354 354 353 352 352 353 353 353 353 355 356 355
322 322 323 325 324 322 322 322 322 324 323 324 326 326 332 340 339 336 339 342 342 340 338 338 337 338 339 339 339 338 338 338 338 337 337 338 339 339 338 339 340 342 343 343 344 348 351 352 353 353 354 354 354 354 353 352 352 351 350 351 352 354 354
323 325 328 328 324 321 319 320 321 322 323 324 327 329 333 339 341 338 338 340 340 339 337 337 336 335 336 336 337 338 338 338 337 336 336 336 337 337 336 336 336 337 339 340 341 344 346 349 350 350 352 353 353 353 352 352 352 351 350 351 351 351 351
323 325 325 323 321 320 317 318 320 322 323 323 324 328 332 338 342 342 340 338 336 336 337 336 335 335 334 333 335 337 337 337 336 336 336 336 336 336 336 336 335 335 336 336 338 341 343 345 346 347 349 349 349 350 350 350 350 350 350 350 350 350 350
323 323 321 320 320 320 319 319 320 320 322 322 321 323 329 338 342 342 342 339 337 336 335 335 334 334 333 332 333 334 336 336 336 335 336 335 335 335 335 335 335 335 335 334 335 337 340 342 342 343 344 343 343 345 348 348 348 349 350 350 349 350 350
321 321 322 321 319 318 319 319 320 320 320 321 320 322 331 340 342 341 342 341 339 336 335 335 333 333 333 332 332 333 333 334 334 334 334 334 334 334 334 334 334 334 334 334 334 334 336 339 340 340 341 341 341 342 344 345 347 349 351 351 350 350 351
321 320 321 320 318 319 318 318 319 320 318 319 319 325 336 342 341 340 341 341 339 337 335 333 332 332 332 332 332 332 332 332 332 333 333 333 333 332 332 333 333 333 333 333 333 333 333 335 337 339 339 339 341 341 341 343 345 347 349 350 351 350 351
321 319 320 320 319 319 317 317 319 318 318 319 319 325 336 340 339 339 339 338 338 336 333 332 332 332 332 331 332 332 332 332 332 332 332 332 332 331 331 331 331 332 332 332 332 332 332 332 334 336 337 338 340 341 340 339 340 342 344 346 347 348 349
320 318 319 318 317 318 318 318 319 318 320 320 316 323 336 339 337 338 338 337 336 334 332 333 333 332 331 330 330 331 332 331 331 330 330 330 330 330 329 329 329 330 331 331 331 331 331 332 332 333 334 335 337 339 338 336 334 336 339 341 343 345 346
322 321 320 319 318 317 319 321 321 320 320 318 319 326 335 337 336 336 336 335 334 333 332 332 332 331 330 329 329 329 329 329 329 328 328 328 329 328 327 325 326 328 329 329 330 329 330 331 331 331 333 333 334 335 336 334 329 328 333 337 338 340 342
323 322 321 320 319 319 322 323 324 323 321 321 326 331 334 335 335 335 334 333 333 332 332 331 331 330 329 329 329 328 328 327 327 326 326 326 327 327 326 323 323 325 326 327 328 328 328 330 330 330 330 331 332 333 335 333 326 322 325 329 331 334 338
323 322 320 320 321 323 324 325 324 325 326 327 330 334 335 335 335 334 333 333 332 331 330 330 330 329 328 328 328 327 327 326 325 325 325 325 325 325 325 323 322 323 324 325 326 325 326 328 330 330 329 328 327 330 334 332 324 319 320 321 323 328 333
322 320 320 322 324 323 323 326 327 325 327 329 331 333 335 335 334 333 333 333 332 331 330 329 329 328 328 328 327 326 326 324 324 324 323 323 324 324 324 322 321 322 324 324 324 324 324 326 329 331 330 327 323 323 330 331 325 318 319 319 318 321 326
322 320 320 322 325 324 324 328 327 323 324 327 330 332 333 333 332 333 332 331 331 331 330 329 328 327 329 330 328 325 324 323 323 323 322 322 322 323 323 321 321 322 323 323 324 324 324 324 326 328 328 328 322 317 323 330 326 320 319 318 317 318 319
323 321 320 320 321 325 328 329 326 322 322 325 328 331 332 332 331 332 331 330 330 330 330 328 328 329 331 331 328 324 323 323 322 321 322 321 321 322 321 321 322 323 322 323 324 325 324 324 325 325 324 324 319 314 322 330 328 324 322 319 317 317 317
324 323 320 319 321 326 328 326 323 322 322 324 326 328 330 332 331 331 330 329 329 330 329 328 329 331 331 330 327 324 323 323 322 322 322 321 321 321 320 321 322 322 322 322 324 324 323 324 324 322 320 318 314 314 323 329 329 329 328 322 318 317 316
323 323 320 320 324 327 325 323 322 320 321 323 325 326 329 329 329 330 328 327 328 329 328 328 328 328 326 325 324 323 322 322 322 322 322 321 321 321 321 322 322 321 321 322 323 322 322 322 322 320 318 317 315 317 323 327 328 330 330 326 323 321 317
320 321 321 323 326 325 322 320 317 317 322 325 324 326 327 325 326 327 326 325 326 326 326 325 324 324 323 322 322 322 321 321 321 321 321 321 321 321 321 322 321 321 320 320 319 319 319 319 318 317 318 317 316 317 322 324 325 328 329 328 328 326 322
319 319 319 324 328 326 320 319 320 323 328 328 324 323 323 322 323 324 323 323 323 323 323 322 322 322 322 322 321 321 321 321 321 321 321 321 321 321 321 321 320 320 319 318 317 317 317 316 315 316 317 316 316 318 320 320 319 320 324 328 329 329 327
322 321 321 323 326 325 321 322 326 327 327 325 323 321 321 321 322 322 322 322 322 321 321 320 320 320 320 320 320 320 320 320 321 321 320 321 320 320 320 320 320 319 318 317 317 317 317 317 316 316 316 315 316 319 320 320 320 319 321 326 329 329 329
326 326 325 324 324 323 323 324 325 324 322 322 322 321 320 321 321 321 321 321 320 320 320 319 319 319 320 320 319 319 319 320 319 319 320 319 319 319 319 319 318 318 317 317 318 318 319 319 318 318 318 317 317 319 319 321 324 323 322 325 328 328 328
328 326 323 322 322 323 323 323 322 322 321 321 321 320 320 321 321 320 321 320 320 319 318 317 318 318 319 319 318 318 318 318 318 318 318 318 318 318 318 317 317 316 316 317 318 318 319 319 319 319 319 319 320 320 320 320 322 322 322 322 325 327 327
327 326 325 324 323 323 322 322 321 320 320 319 320 320 321 321 321 321 320 320 319 318 317 317 318 318 317 318 318 318 317 317 317 317 317 317 317 317 316 316 316 316 316 317 317 317 318 318 318 318 319 319 320 321 321 321 321 321 321 320 321 324 326
325 327 325 322 320 321 321 321 320 319 318 319 320 320 320 320 321 321 320 320 319 318 317 316 317 317 317 317 317 317 317 317 316 316 316 316 316 315 315 315 315 316 317 317 317 317 317 318 317 317 317 318 319 320 320 321 322 322 322 321 322 323 324
325 327 326 322 322 324 321 319 320 319 318 318 320 320 320 320 320 319 318 319 319 317 316 316 317 317 317 317 317 316 316 316 316 315 315 315 315 314 315 315 316 316 316 316 316 316 317 317 316 316 317 318 319 320 320 321 321 322 322 322 323 323 324
327 327 325 324 326 327 323 319 319 319 318 319 320 320 320 319 319 318 317 317 318 317 317 317 317 317 317 316 316 315 315 315 315 315 314 314 314 314 315 315 315 316 316 316 316 316 316 315 314 314 317 319 320 320 320 320 321 321 322 322 323 323 324
325 323 321 321 324 324 321 319 319 319 318 319 319 319 319 319 318 317 316 316 317 317 317 317 316 316 316 316 315 315 314 314 314 314 314 313 313 314 314 315 315 316 316 316 315 315 314 313 313 314 318 320 320 320 321 321 321 321 321 321 322 323 324
323 321 319 319 321 321 319 318 319 319 318 318 318 318 318 318 317 317 316 316 316 316 315 315 315 315 315 314 314 314 314 314 314 313 313 313 313 313 314 315 315 316 315 315 314 314 313 313 313 314 317 319 319 320 320 321 321 321 321 321 322 323 324
321 320 318 318 320 321 320 319 319 318 318 318 318 317 317 316 316 316 316 316 316 315 314 314 314 314 314 314 314 314 313 313 313 312 312 312 313 314 314 315 315 315 314 314 313 313 313 313 313 314 316 317 318 318 319 320 320 320 321 321 322 322 322
Wind_Speed
6 6 6 6 5 2 3 3 3 5 6 4 2 4 5 5 3 1 2 7 6 5 7 4 4 9 12 11 15 18 18 17 16 14 14 15 14 12 10 11 14 17 21 23 27 32 31 28 28 29 26 24 25 25 21 19 17 19 24 25 23 22 21
5 4 6 7 8 5 2 3 3 3 3 1 2 1 2 2 4 2 4 10 9 5 5 4 6 10 11 9 12 17 19 17 13 12 13 13 12 10 8 9 11 14 17 19 22 27 30 30 28 29 27 21 23 25 23 20 18 17 20 23 23 23 22
4 4 4 5 9 9 2 1 2 1 1 1 2 1 2 2 5 3 2 3 2 2 3 8 12 13 12 11 13 15 17 16 11 11 12 12 12 11 8 7 9 12 13 16 19 21 25 29 28 28 27 22 22 24 23 21 19 16 17 20 22 22 21
2 2 2 1 5 6 1 5 5 1 3 1 1 2 3 3 5 4 2 2 3 1 1 3 9 13 12 12 12 11 14 17 14 13 12 10 8 9 10 8 6 9 12 15 18 19 22 25 26 26 26 24 22 21 21 22 21 17 17 19 22 22 21
1 1 1 2 3 2 2 2 4 3 1 0 1 3 3 4 5 4 5 1 2 1 0 0 5 10 11 12 11 11 15 17 14 14 15 13 9 7 9 8 6 7 11 16 17 17 19 21 22 24 23 23 23 21 19 21 22 21 20 20 21 22 21
2 3 3 5 6 4 2 3 4 4 3 2 2 4 4 2 5 6 7 5 0 1 3 3 4 8 11 15 16 14 16 17 15 13 13 15 15 12 9 7 7 8 10 14 15 14 18 18 17 18 18 18 21 22 20 21 22 22 22 21 20 22 21
3 7 8 10 10 6 2 1 3 5 4 3 3 3 1 3 5 5 6 6 3 2 3 5 7 12 16 19 20 18 18 19 16 13 12 14 16 15 14 12 10 11 12 13 14 14 16 15 12 14 17 17 18 19 19 20 22 24 24 22 21 22 23
4 5 8 8 5 1 3 3 4 5 4 2 2 4 4 3 4 5 5 4 2 0 2 7 12 19 21 22 23 21 19 19 17 15 14 14 14 14 15 15 11 10 13 15 16 15 15 13 11 14 18 16 16 17 17 16 17 19 22 24 24 23 24
5 3 2 2 3 4 2 3 6 7 2 3 2 2 4 4 5 7 6 4 2 5 8 7 11 16 18 22 24 21 20 19 19 18 16 16 15 15 15 14 11 9 10 12 14 14 14 13 11 12 14 11 10 12 14 16 15 14 16 19 23 24 25
3 2 1 1 3 3 2 4 9 9 2 7 4 2 5 4 4 6 7 6 3 8 12 9 9 10 12 20 24 21 20 20 19 19 17 16 17 18 18 17 14 11 9 8 10 12 13 12 12 13 13 12 12 11 9 11 13 13 13 15 17 19 22
2 2 3 2 4 2 1 6 10 6 5 8 4 4 4 4 5 4 7 13 10 8 11 12 11 11 11 16 22 22 21 22 20 20 18 17 19 20 20 20 19 17 14 10 7 8 11 12 13 14 14 13 12 12 11 9 8 8 8 10 13 11 13
3 5 4 7 7 3 5 11 10 2 7 8 6 5 5 7 7 4 6 15 15 11 12 13 12 11 10 13 19 22 23 23 22 22 21 19 19 19 19 20 20 19 18 18 14 8 7 8 10 14 14 10 8 9 9 8 7 6 7 7 9 7 6
4 6 6 6 7 5 8 12 10 5 6 6 3 2 4 6 6 7 9 13 13 10 12 13 12 13 13 15 19 22 24 24 22 23 22 19 19 18 18 18 19 18 18 20 22 18 12 8 6 9 11 8 6 4 4 4 4 4 5 6 8 7 5
7 8 6 3 7 7 6 8 6 6 9 6 3 3 7 10 10 13 14 12 10 9 10 12 14 19 21 21 22 22 24 23 22 23 22 18 18 17 16 17 17 18 19 19 22 24 22 16 10 10 15 17 13 8 3 5 4 1 5 6 8 9 7
7 9 4 3 6 5 5 7 6 7 7 7 6 5 11 13 11 13 15 13 8 7 11 15 19 24 24 21 21 22 23 23 23 24 22 19 18 17 16 17 16 18 20 20 20 22 23 22 18 16 19 21 20 18 15 10 5 3 1 3 6 9 9
4 7 6 4 4 5 4 6 6 4 2 3 5 3 9 12 13 13 13 11 7 7 13 17 19 23 23 19 18 20 22 24 24 23 22 20 18 17 16 16 16 17 19 20 20 20 20 21 20 19 19 21 21 21 21 19 13 6 3 3 3 5 6
2 5 8 7 4 3 4 3 4 5 1 1 5 2 10 16 15 12 9 7 6 9 13 14 13 16 19 19 20 22 24 25 24 22 21 19 18 17 16 16 15 16 18 20 19 19 18 18 18 18 20 21 21 19 18 19 18 15 12 9 7 5 3
3 4 7 8 2 3 2 1 3 6 3 2 2 3 12 15 10 9 9 9 10 10 10 10 11 14 19 22 24 24 24 23 23 22 20 18 16 15 14 14 15 16 18 19 18 17 17 17 16 16 18 20 20 20 18 18 20 21 19 16 14 11 6
3 5 5 4 3 3 2 5 7 8 3 5 10 11 11 13 13 14 13 11 11 11 11 13 18 21 23 23 22 20 18 19 22 22 21 19 16 14 13 13 15 17 18 18 16 15 15 17 16 15 15 18 20 21 19 17 19 22 21 20 20 18 14
1 3 1 0 3 2 5 6 6 8 7 9 14 11 9 11 14 15 14 12 11 14 16 19 22 25 23 20 18 16 13 15 21 23 21 19 16 15 14 13 13 16 17 17 15 13 15 17 16 15 14 14 17 20 18 15 17 21 21 21 20 20 17
2 2 2 1 2 3 3 3 2 4 7 8 9 7 6 8 11 14 13 12 12 15 18 20 22 24 20 14 12 12 11 14 21 22 20 17 15 15 15 13 13 14 15 15 13 12 14 17 15 13 12 12 14 17 17 15 16 17 19 19 19 18 16
2 1 2 0 1 2 2 3 2 2 7 11 11 8 5 5 11 17 14 12 15 17 18 20 21 20 13 6 7 12 13 17 21 21 18 16 13 12 12 12 12 12 13 14 12 10 11 13 13 10 9 10 13 16 17 16 16 16 16 17 18 17 16
2 1 1 2 1 3 3 3 4 8 12 15 13 8 1 4 12 18 15 14 19 20 20 22 20 12 6 3 8 14 13 15 20 20 18 16 13 11 10 11 12 11 10 12 12 10 9 10 9 7 6 8 11 14 15 14 15 15 15 16 16 16 15
3 2 2 1 1 2 1 4 9 13 15 13 10 4 3 8 16 20 16 16 22 23 21 19 13 6 3 7 14 18 15 14 13 12 11 10 9 11 11 9 9 9 8 9 10 10 9 8 7 6 7 9 10 12 12 11 13 14 14 15 15 14 13
3 3 3 1 1 1 2 7 11 13 11 7 5 3 7 12 19 20 16 17 22 25 24 17 10 8 11 15 19 20 18 17 14 11 10 8 7 10 9 6 5 5 5 5 6 7 6 5 6 7 8 9 9 10 9 8 10 11 11 13 14 14 13
3 3 2 1 1 1 4 12 13 10 7 2 2 2 3 13 19 16 15 18 21 24 24 21 20 18 16 18 19 17 18 19 16 12 12 11 10 9 7 4 2 1 3 3 4 5 5 6 7 7 8 8 7 8 7 6 7 6 7 10 12 14 14
2 3 0 2 1 2 7 12 7 5 3 4 0 7 14 21 25 24 23 23 24 25 26 25 25 21 17 18 18 16 16 16 13 12 12 11 9 7 4 5 2 3 5 6 7 8 8 8 8 7 7 7 7 8 8 7 6 5 4 7 9 12 15
1 1 1 2 2 5 11 13 6 4 7 6 6 14 21 24 26 28 28 26 24 25 27 25 22 19 17 18 18 16 14 13 13 13 11 10 8 6 2 1 2 3 5 5 6 8 8 8 8 8 8 8 7 7 7 8 8 6 3 4 5 8 13
1 1 2 2 5 14 19 18 14 13 13 9 9 15 21 21 22 24 27 27 25 24 25 25 21 18 17 16 15 14 14 13 13 11 9 9 7 4 1 3 4 5 4 2 3 4 4 5 5 5 6 7 6 7 6 6 6 5 3 1 1 3 8
1 2 1 3 11 17 19 17 16 15 14 12 10 13 19 21 20 19 21 23 23 22 22 21 18 18 19 17 15 15 14 12 12 10 8 7 5 3 2 3 5 4 2 1 2 1 2 2 2 2 2 2 3 5 6 6 6 6 5 4 3 2 3
2 0 1 1 7 16 19 16 14 13 12 12 10 12 19 21 20 19 18 19 20 20 20 19 18 16 15 15 14 14 12 11 10 8 6 5 3 2 1 2 4 4 4 3 3 3 4 4 4 4 2 2 1 2 4 5 6 7 7 6 4 4 2
3 1 3 9 5 9 17 17 16 14 11 12 13 14 18 20 20 18 15 13 14 15 16 17 16 13 13 14 13 11 10 9 7 6 5 4 2 1 2 2 2 3 3 3 4 4 5 5 6 5 4 4 3 3 4 5 6 8 7 6 4 2 1
3 2 8 14 13 4 5 12 18 19 14 13 16 15 15 17 19 18 12 8 8 8 9 12 13 12 13 14 13 11 10 9 7 6 5 3 2 2 2 2 2 2 2 3 4 4 5 7 7 5 4 5 5 5 6 5 5 7 7 6 4 3 2
1 1 4 8 5 4 6 0 11 19 18 17 17 16 15 15 15 14 14 12 10 8 9 13 13 11 10 10 10 9 8 7 7 6 4 3 3 2 1 2 2 2 2 3 4 5 7 9 8 5 4 6 6 4 4 3 3 5 6 6 5 3 3
2 2 1 5 1 4 5 5 7 19 20 15 15 16 16 15 14 11 11 10 10 9 10 11 11 9 8 9 8 6 6 8 7 4 1 1 2 0 2 3 2 2 2 3 4 6 8 11 9 4 4 6 6 4 3 2 2 4 5 6 5 4 3
2 3 4 1 1 1 3 5 4 15 18 15 15 16 17 16 15 13 10 9 10 11 9 8 10 11 10 9 8 9 10 10 7 3 2 2 1 2 3 2 0 1 2 3 5 6 8 10 9 5 4 7 7 5 4 2 2 2 4 5 6 6 7
3 5 4 3 2 1 2 2 3 7 12 15 17 18 17 16 15 15 13 12 13 12 10 10 14 13 11 11 11 12 10 7 5 4 3 1 1 1 1 1 2 2 3 4 5 6 7 9 8 5 5 7 7 6 5 4 2 2 3 4 5 7 9
Wind_Direction
140 181 226 240 249 241 186 221 250 233 209 168 160 206 198 180 149 75 104 112 112 108 84 76 167 137 118 113 113 106 95 97 106 106 117 130 137 144 156 174 184 193 200 198 190 186 189 189 181 181 190 200 208 213 217 215 211 209 211 214 215 211 207
122 199 245 267 266 259 197 202 265 289 254 184 95 91 247 177 123 124 141 131 134 135 122 185 188 128 112 106 96 91 87 90 105 114 120 125 117 116 141 161 176 188 193 196 194 191 194 197 190 186 190 196 204 213 218 216 215 213 213 216 218 218 214
137 193 232 264 262 257 228 85 315 331 214 257 93 114 236 136 110 109 86 91 124 115 138 175 157 128 114 99 85 81 81 81 88 101 107 110 102 102 126 158 181 189 191 194 197 197 199 202 202 196 195 194 195 207 217 218 222 226 220 218 218 220 219
135 157 163 189 252 261 15 14 322 229 153 179 153 206 226 129 118 135 117 314 292 24 31 167 132 118 108 95 87 81 79 76 74 78 80 83 94 100 99 109 151 174 184 192 196 201 201 202 205 202 201 200 195 200 213 216 220 225 223 220 218 219 220
226 218 168 205 252 279 68 17 296 272 302 277 226 268 242 144 127 140 128 120 292 340 126 63 89 98 99 96 94 86 81 79 71 70 68 61 67 97 99 94 107 137 171 185 187 193 193 193 199 200 201 204 201 199 207 212 215 218 221 221 219 218 219
215 175 170 228 251 262 205 186 227 249 258 219 243 278 270 133 118 141 136 121 166 214 152 141 108 106 103 99 98 92 87 85 73 65 69 65 66 79 86 85 94 108 141 170 174 175 181 183 191 197 197 199 200 202 204 208 213 217 220 221 217 214 215
216 181 182 210 232 253 286 262 242 246 232 207 228 242 278 35 69 108 114 113 138 152 138 154 142 125 116 109 105 100 93 89 81 70 68 67 65 69 69 66 79 95 105 130 147 158 172 178 182 193 201 203 203 203 199 199 206 212 215 218 216 210 208
281 198 184 192 207 287 340 290 265 258 249 230 183 164 136 101 110 110 93 99 123 80 199 182 145 128 124 118 113 111 105 97 91 81 70 65 62 65 67 64 72 90 97 109 125 141 157 162 164 179 194 203 209 206 199 196 203 208 212 214 211 207 208
332 357 28 29 7 356 333 280 273 266 276 51 78 126 83 87 125 118 106 107 128 157 177 172 130 122 124 120 116 117 114 108 100 90 80 73 68 64 66 67 74 90 96 101 111 126 142 146 146 158 170 174 176 186 195 202 209 213 217 213 204 203 209
13 21 22 2 328 299 292 296 277 266 355 60 80 94 58 70 118 117 116 120 142 162 155 139 120 125 125 120 119 118 116 113 107 99 90 83 78 71 68 66 66 73 80 84 95 111 124 130 131 135 138 133 121 117 140 182 205 215 224 222 209 203 206
27 238 224 282 294 264 279 287 270 268 40 54 74 90 90 118 117 114 140 142 153 166 144 131 136 139 126 118 120 121 120 118 113 106 95 82 76 71 69 67 63 62 61 58 71 100 109 112 117 118 116 117 118 112 108 123 163 177 185 203 208 209 209
286 275 327 344 326 6 6 316 297 347 47 44 38 60 129 142 111 100 155 147 149 163 148 135 134 129 115 112 119 124 126 125 122 116 106 94 83 73 69 68 66 64 61 54 55 72 98 102 100 99 102 109 120 122 114 112 130 130 118 145 171 182 206
282 289 312 327 332 16 11 336 324 359 39 60 46 28 125 130 121 137 157 148 141 143 135 128 129 127 122 121 124 125 124 124 121 114 107 101 94 83 73 69 65 67 67 59 57 60 65 79 98 92 79 64 64 100 147 153 138 92 77 118 150 157 183
336 305 270 303 353 9 3 341 352 24 21 29 358 357 88 101 117 132 135 131 124 122 120 122 127 124 119 118 118 114 113 114 108 101 98 94 88 83 77 71 64 64 67 63 59 58 58 65 86 89 70 61 64 77 136 186 189 119 71 104 134 137 141
341 318 306 3 349 332 328 331 360 40 18 348 349 45 98 106 113 121 120 114 110 111 111 112 118 117 114 113 114 112 109 108 101 95 95 93 87 81 76 73 66 62 65 66 64 61 59 64 71 71 66 66 71 75 81 95 133 183 111 100 126 131 130
325 316 323 313 275 274 310 322 325 359 24 332 343 55 117 123 121 119 116 115 122 126 113 110 115 115 111 105 104 107 109 106 100 94 92 92 91 86 79 75 71 66 64 66 68 66 63 66 69 68 65 66 71 73 72 75 83 100 106 90 107 128 140
298 292 295 289 266 274 298 287 291 314 17 16 326 11 121 129 133 132 132 134 135 129 121 120 122 115 107 100 96 100 106 107 103 99 94 92 92 89 84 79 77 75 70 67 68 67 66 66 68 70 67 67 71 70 62 62 68 75 80 79 72 77 115
299 300 310 312 288 228 265 71 20 332 295 208 333 73 120 126 123 115 122 132 131 129 130 129 124 113 107 107 104 104 109 111 108 104 101 97 96 95 89 81 81 80 75 70 68 67 67 65 65 72 74 72 70 63 51 52 62 68 71 72 67 64 66
299 324 346 333 249 219 31 39 18 347 318 121 86 80 105 115 114 112 117 127 129 126 127 121 114 112 112 114 113 112 114 114 110 107 105 101 99 99 89 79 81 80 72 69 68 66 66 64 58 61 73 78 76 67 53 46 55 62 64 65 65 66 68
292 325 356 193 261 300 36 33 1 3 32 82 83 77 88 108 121 127 128 130 118 107 113 117 114 116 120 120 120 120 118 118 116 110 105 100 97 95 85 74 78 80 70 65 63 60 63 65 60 54 57 69 76 72 59 44 46 56 58 58 61 65 69
200 240 221 168 334 323 34 47 351 28 64 93 99 95 104 117 129 133 130 129 120 112 120 125 122 123 121 113 123 127 108 109 116 109 102 101 98 95 86 73 73 80 76 66 55 52 61 64 63 59 53 52 58 62 59 45 38 46 52 52 52 54 60
216 228 264 18 61 248 215 167 176 70 87 114 115 97 97 134 140 141 139 134 134 138 143 139 132 131 123 106 147 148 119 107 112 107 101 101 97 95 89 75 69 76 80 70 52 46 61 60 53 50 43 34 34 41 48 42 29 30 39 42 43 44 45
266 215 250 224 215 258 233 167 108 67 85 110 110 92 132 180 149 149 151 140 138 144 146 141 137 140 144 142 166 165 145 116 108 103 99 95 84 82 85 78 73 74 82 77 58 51 62 57 43 35 24 17 21 33 46 43 27 22 24 25 31 36 37
269 259 252 229 293 297 168 113 91 87 96 107 101 87 218 175 153 157 156 137 133 137 142 143 142 147 160 156 165 167 155 133 119 110 112 107 80 68 69 77 85 83 83 85 70 61 61 49 27 14 11 10 20 41 54 50 35 26 16 12 16 20 25
253 249 244 234 325 282 92 79 87 98 99 93 101 179 205 170 157 157 146 130 137 148 151 147 134 119 114 124 142 145 130 124 125 117 121 127 93 67 60 65 93 86 72 78 71 60 53 31 10 8 13 15 26 44 54 53 49 37 13 5 6 4 8
254 248 245 61 358 261 100 82 80 88 95 114 205 251 162 140 139 133 118 119 136 146 141 128 123 125 117 114 123 121 108 113 122 120 122 120 99 80 57 29 42 37 1 3 13 8 358 352 349 356 6 6 12 27 32 38 51 46 20 10 3 355 355
243 251 202 102 269 243 124 106 76 43 94 162 214 42 75 103 115 115 112 116 123 122 117 116 122 125 115 107 110 107 103 111 121 126 129 124 114 107 66 17 337 285 309 328 338 341 342 342 338 338 345 347 354 6 6 4 10 18 30 28 8 348 343
306 255 251 214 295 36 90 109 105 76 104 119 84 73 82 96 107 109 109 112 116 113 108 109 113 114 109 107 107 106 108 113 114 116 121 126 131 137 117 350 263 273 296 314 334 345 351 353 348 342 340 340 348 358 357 359 5 7 29 50 24 347 337
185 186 263 206 96 76 86 99 98 92 98 107 102 93 93 101 110 110 109 113 118 117 112 109 110 116 120 119 115 115 116 118 117 118 125 134 135 137 199 251 266 279 286 312 1 356 353 0 5 0 353 350 352 351 343 345 355 353 349 40 51 351 339
91 59 32 110 103 95 96 99 98 94 91 93 100 97 98 112 125 123 118 120 122 122 122 118 113 118 125 127 126 123 117 117 124 127 129 137 141 152 198 293 314 313 306 21 40 356 338 350 351 342 342 356 4 352 332 317 316 318 314 301 263 243 334
6 209 233 211 122 118 114 107 104 102 90 84 97 102 100 111 127 131 127 130 129 126 128 125 116 118 128 134 134 130 124 124 131 129 123 130 150 181 241 326 4 32 33 8 353 357 2 354 335 321 309 301 316 333 333 334 333 326 323 320 288 245 257
319 178 17 347 355 128 136 134 130 128 111 96 107 116 108 107 115 119 124 135 134 127 126 126 123 123 131 134 133 134 137 138 134 130 134 144 151 29 13 14 47 59 29 356 359 5 355 335 324 326 346 360 2 3 7 12 358 341 339 348 337 289 267
314 7 22 6 357 354 163 147 141 146 148 131 125 126 122 118 115 110 109 123 129 123 125 131 132 133 134 135 135 134 137 139 135 139 151 148 86 55 63 59 51 39 1 345 349 342 329 325 321 325 5 27 29 23 17 14 1 348 342 341 338 328 333
282 283 5 16 13 279 277 333 135 150 153 148 146 145 143 147 144 129 119 119 123 134 143 141 139 138 141 152 159 156 153 152 150 156 164 137 97 90 109 88 51 28 359 329 324 323 324 326 323 327 19 31 21 9 4 3 348 335 323 314 310 309 330
165 165 48 28 53 225 290 359 135 160 161 159 166 166 162 165 169 158 144 137 136 146 156 159 161 161 159 166 171 169 167 170 168 172 188 142 138 101 63 78 68 23 357 330 323 326 326 329 334 355 40 29 11 345 328 337 321 299 292 295 293 282 292
196 178 163 98 51 224 331 12 134 169 175 179 181 176 168 162 159 157 161 166 161 157 161 177 184 181 183 193 193 176 167 169 171 170 168 153 129 59 58 71 6 348 26 5 341 331 324 327 340 5 24 17 9 347 319 310 302 293 294 295 291 281 279
239 235 219 231 276 241 242 264 208 176 177 179 177 172 167 161 160 163 169 175 176 174 175 181 182 185 194 198 186 170 159 150 149 171 193 210 42 58 61 3 324 349 21 4 348 344 333 325 328 340 355 0 359 341 324 318 314 318 318 314 311 301 291